Location: Ch�tillon
(48.8024°N, 2.2935°E)
Time: 18:26:03
(UTC+00:00)

RS-15 - Pass Details

Date: 01 July 2022
Orbit: 1881 x 2163 km, 64.8° (Epoch: 11 August)

Event Time Altitude Azimuth Distance (km) Brightness Sun altitude
Rises 01:55:26 0° 319° (NW) 5,698 10.8 -13.2°
Reaches altitude 10° 02:00:12 10° 305° (NW) 4,676 10.1 -12.8°
Maximum altitude 02:08:02 20° 264° (W) 3,835 9.2 -12.2°
Enters shadow 02:14:48 12° 227° (SW) 4,396 9.2 -11.6°
